923  
NZUS99 KTBW 051111  
RWRTPA  
FLORIDA REGIONAL WEATHER ROUNDUP  
NATIONAL WEATHER SERVICE TAMPA BAY RUSKIN FL  
600 AM EST TUE MAR 05 2024  
 
NOTE: "FAIR" INDICATES FEW OR NO CLOUDS BELOW 12,000 FEET WITH NO  
SIGNIFICANT WEATHER AND/OR S TO VISIBILITY
.  
 
 
STATION/POSITION
 
 
 
FLZ042-048>051-055-056-060-061-051200-  
EXTRA STATIONS  
 
CITY SKY/WX TMP DP RH WIND PRES REMARKS
 
EVERGLADES CTY NOT AVBL  
CRYSTAL RIVER CLOUDY 64 63 94 E5 30.01F  
SEBRING MOCLDY 63 63 99 N3 30.03S  
EGLIN AFB LGT RAIN 66 64 94 CALM 29.98R  
CANAVERAL CLOUDY 64 63 96 CALM 29.99R  
 

 
FLZ001>010-012>015-051200-  
PANHANDLE FLORIDA  
 
CITY SKY/WX TMP DP RH WIND PRES REMARKS
 
PENSACOLA RAIN 65 62 90 VRB5 29.95R  
PENSACOLA NAS RAIN 67 32 27 SE13 29.93F  
MILTON NAS RAIN 64 62 93 SE12 29.94S  
CRESTVIEW LGT RAIN 64 63 96 CALM 29.98R  
VALPARAISO LGT RAIN 66 64 94 SE12 29.97R  
MARY ESTHER SHOWER 66 64 94 SE9 29.96R  
PANAMA CITY LGT RAIN 67 65 93 E5 29.97R  
TYNDALL AFB LGT RAIN 66 64 93 SE10 29.96R  
APALACHICOLA LGT RAIN 65 64 97 E6 29.97S  
 
STATION/POSITION
 
 
29.2N 88.2W  
28.5N 84.5W  
 

 
FLZ011-016>039-051200-  
NORTH FLORIDA  
 
CITY SKY/WX TMP DP RH WIND PRES REMARKS
 
MARIANNA CLOUDY 63 63 100 E6 29.97F  
TALLAHASSEE LGT RAIN 65 61 87 E7 30.00R  
CROSS CITY CLOUDY 64 63 94 E6 30.02F  
GAINESVILLE CLOUDY 62 62 100 E3 30.06S FOG  
MAYPORT NAS CLOUDY 62 59 90 N3 30.05R FOG  
JACKSONVILLE FOG 58 58 100 CALM 30.04S VSB 1/8  
JAX NAS FOG 63 60 90 NE6 30.06R VSB 1/4  
JAX CRAIG FOG 60 59 96 CALM 30.05R VSB 1/2  
ST AUGUSTINE CLOUDY 61 61 100 CALM 30.06R  
 
STATION/POSITION
 
 
31.4N 80.9W  
ST AUGUSTINE  
 

 
FLZ040-043>046-052-053-057-058-063-051200-  
CENTRAL FLORIDA  
 
CITY SKY/WX TMP DP RH WIND PRES REMARKS
 
OCALA CLOUDY 65 64 97 E5 30.05R  
LEESBURG CLOUDY 65 64 97 E5 30.05R  
SANFORD CLOUDY 64 64 100 CALM 30.04R FOG  
ORLANDO EXEC CLOUDY 66 65 96 E3 30.03R  
ORLANDO INTL CLOUDY 66 65 96 NE3 30.03R  
KISSIMMEE MOCLDY 66 65 96 E3 30.04R  
WINTER HAVEN CLOUDY 65 65 100 E6 30.03R  
LAKELAND INTL MOCLDY 64 64 100 E6 30.02S  
BARTOW CLOUDY 66 64 94 E6 30.03S  
 

 
FLZ041-047-054-059-064-051200-  
EAST CENTRAL FLORIDA  
 
CITY SKY/WX TMP DP RH WIND PRES REMARKS
 
DAYTONA BEACH FOG 63 63 100 CALM 30.04R VSB 1/4  
JFK SPACE CTR CLOUDY 65 64 96 CALM 30.00R  
PATRICK AFB MOCLDY 68 66 92 E3 29.99R  
MELBOURNE MOCLDY 65 65 100 CALM 30.01R  
FT PIERCE PTCLDY 63 61 93 CALM 30.01R  
STUART PTCLDY 70 64 82 MISG 30.02R  
 
STATION/POSITION
 
 

 
FLZ042-048>051-055-056-060-061-051200-  
WEST CENTRAL FLORIDA  
 
CITY SKY/WX TMP DP RH WIND PRES REMARKS
 
BROOKSVILLE CLOUDY 66 64 93 E5 30.02F  
TAMPA MOCLDY 67 64 90 VRB3 30.00F  
MACDILL AFB CLOUDY 67 65 91 SE10 29.98F  
SARASOTA MOCLDY 68 64 87 E9 29.99R  
 
STATION/POSITION
 
 
28.5N 84.5W  
VENICE  
 

 
FLZ062-065-066-069-070-075>078-051200-  
SOUTHWEST FLORIDA AND KEYS  
 
CITY SKY/WX TMP DP RH WIND PRES REMARKS
 
PUNTA GORDA MOCLDY 66 63 90 E6 30.01S  
MARATHON PTCLDY N/A N/A N/A E6 29.97R  
KEY WEST NAS PTCLDY 75 74 96 SE5 29.97R  
KEY WEST INTL CLEAR 75 72 90 SE5 29.97R  
 
STATION/POSITION
 
 
VENICE  
SAND KEY  
SOMBRERO KEY  
LONG KEY  
 

 
FLZ067-068-071>074-051200-  
SOUTHEAST FLORIDA  
 
CITY SKY/WX TMP DP RH WIND PRES REMARKS
 
W PALM BEACH PTCLDY 72 67 84 E5 30.00R  
POMPANO BEACH PTCLDY 73 67 81 E6 30.00R  
FT LAUDER-EXEC PTCLDY 72 70 93 CALM 29.99R  
FT LAUDERDALE MOCLDY 74 69 85 E7 29.98R  
PEMBROKE PINES PTCLDY 73 70 90 CALM 30.00R  
OPA LOCKA PTCLDY 71 68 90 E3 29.99R  
MIAMI MOCLDY 73 68 84 E6 29.99R  
WEST KENDALL PTCLDY 69 69 100 CALM 29.99R  
HOMESTEAD PTCLDY 73 68 86 E3 29.97R  
 
STATION/POSITION
 
 
LAKE WORTH  
SETTLEMENT POINT  
 

 
 
 
CLICK HERE TO GO TO PREVIOUS BULLETINS.

The Nexlab FL Page Main Text Page